Lexington Weather

Lexington, Massachusetts, USA

54°F
12/10/2019 5:15pm 
  • Lexington Conditions: Overcast
  • Temperature: 53.6°F / 12.0°CColder 0.5°F than last hour.
  • Dew Point: 52.2°FDecreased 0.3°Fsince last hour.
  • Relative Humidity: 95%Increased 1.0% since last hour.
  • Wind: Wind from SW SW 2 mph, 10-min avg: 3 mph, gust: 11 mph
  • Barometer: 29.72 inRising 0.02  inHg/hr Rising Slowly
  • Visibility: 10 miles
  • Rain Today: 0.05 in
  •   

Regional Weather Roundup
for Boston / Norton, MA

        
000
ASUS41 KBOX 091100
RWRBOX

REGIONAL WEATHER ROUNDUP
NATIONAL WEATHER SERVICE BOSTON/NORTON MA
600 AM EST MON DEC 09 2019

NOTE:  "FAIR" INDICATES FEW OR NO CLOUDS BELOW 12,000 FEET WITH NO 
SIGNIFICANT WEATHER AND/OR OBSTRUCTIONS TO VISIBILITY.

MAZALL-091200-
EASTERN MASSACHUSETTS
  
CITY           SKY/WX    TMP DP  RH WIND       PRES   REMARKS
BOSTON         CLOUDY    43  37  79 SW5       30.25S                  
BEVERLY        LGT RAIN  44  39  82 SW7       30.24S                  
LAWRENCE       CLOUDY    38  33  82 CALM      30.25F                  
BEDFORD        LGT RAIN  40  37  89 S8        30.23F                  
BLUE HILL        N/A     40  38  93 S16       30.21F WCI  31          
NORWOOD        CLOUDY    41  36  82 CALM      30.24F                  
MARSHFIELD     NOT AVBL                                               
PLYMOUTH       CLOUDY    45  43  93 S5        30.25F                  
TAUNTON        CLOUDY    37  34  89 SE3       30.25F                  
NEW BEDFORD    LGT RAIN  46  44  93 S7        30.25F FOG              
$$

MAZALL-091200-
CAPE COD AND THE ISLANDS
  
CITY           SKY/WX    TMP DP  RH WIND       PRES   REMARKS
FALMOUTH       NOT AVBL                                               
HYANNIS        NOT AVBL                                               
CHATHAM        CLOUDY    47  44  90 S7G17     30.29F                  
PROVINCETOWN   CLOUDY    46  43  89 S9        30.27F                  
NANTUCKET      CLOUDY    49  44  83 S13       30.28F                  
MARTHAS VNYRD  CLOUDY    50  46  86 S9        30.27F                  
$$
 
MAZALL-091200-
CENTRAL AND WESTERN MASSACHUSETTS
  
CITY           SKY/WX    TMP DP  RH WIND       PRES   REMARKS
WORCESTER      FOG       37  36  96 SW9       30.20F VSB 3/4 WCI  30  
FITCHBURG      MOCLDY    41  36  82 S5        30.22F                  
ORANGE         CLOUDY    39  35  86 S6        30.20F                  
SPRINGFIELD    CLOUDY    35  34  96 SE7       30.20F WCI  30          
WESTFIELD      CLOUDY    33  31  92 S3        30.20F FOG              
NORTH ADAMS    MOCLDY    39  33  79 E8        30.15F                  
PITTSFIELD     CLOUDY    40  36  86 CALM      30.13F                  
$$
 
RIZALL-091200-
RHODE ISLAND
  
CITY           SKY/WX    TMP DP  RH WIND       PRES   REMARKS
PROVIDENCE     CLOUDY    39  37  92 CALM      30.24F                  
NEWPORT        LGT RAIN  50  47  89 S9        30.24F FOG              
BLOCK ISLAND   LGT RAIN  49  48  97 S7        30.24F                  
SMITHFIELD     LGT RAIN  40  40 100 CALM      30.23F VSB 3/4          
WESTERLY       CLOUDY    51  47  86 S7        30.24F                  
$$
 
CTZALL-091200-
CONNECTICUT
  
CITY           SKY/WX    TMP DP  RH WIND       PRES   REMARKS
BRADLEY INTL   DRZL/FOG  34  31  88 CALM      30.22F VSB 1/2          
HARTFORD       LGT RAIN  33  32  96 CALM      30.23F FOG              
BRIDGEPORT     LGT RAIN  40  39  97 NE3       30.22F FOG              
DANBURY        LGT RAIN  35  35 100 CALM      30.21S FOG              
GROTON         NOT AVBL                                               
NEW HAVEN      CLOUDY    43  40  89 CALM      30.21F FOG              
CHESTER        LGT RAIN  39  39 100 CALM      30.21F VSB 1/2          
MERIDEN        LGT RAIN  34  33  96 CALM      30.22F VSB 1            
WILLIMANTIC    FRZ RAIN  31  30  96 CALM      30.25F FOG              
OXFORD         LGT RAIN  39  38  96 CALM      30.20F VSB 1/2          
$$

MEZ002-015-021-024-NHZ003-005-008-011-012-014-VTZ005-008-091200-
NORTHERN NEW ENGLAND
  
CITY           SKY/WX    TMP DP  RH WIND       PRES   REMARKS
PORTLAND ME    CLOUDY    38  29  70 CALM      30.23F                  
BANGOR ME      LGT RAIN  38  32  79 SW7       30.21R                  
CONCORD NH     CLOUDY    38  33  82 S7        30.21S                  
MANCHESTER NH  CLOUDY    39  34  82 S8        30.21S                  
NASHUA NH      CLOUDY    34  33  96 CALM      30.22F                  
PORTSMOUTH NH  NOT AVBL                                               
JAFFREY NH     CLOUDY    37  32  82 S3        30.18F                  
KEENE NH       CLOUDY    38  33  82 N5        30.20S                  
BURLINGTON VT  CLOUDY    39  29  67 S15G26    30.09F WCI  31          
MT. WASHINGTON NOT AVBL                                               
$$

NYZ052-076-091200-
EASTERN NEW YORK
  
CITY           SKY/WX    TMP DP  RH WIND       PRES   REMARKS
ALBANY         CLOUDY    40  31  70 S12       30.16F                  
NEW YORK CITY  LGT RAIN  42  39  89 NE10      30.19F FOG              
$$
 
ANZALL-091200-
MARINE OBSERVATIONS
  
STATION/POSITION TIME  TEMP    WIND        PRES    VSBY  WAVE
                       AIR SEA DIR/SP/G                  HT/PER
                 (UTC) (F)     (DEG/KT/KT) (MB)    (MI)  (FT/S)
BOSTON BUOY      0950   45 47  180/ 16/ 19 1024.0          2/ 4
BUZZARDS BAY     1000   51     180/ 18/ 24 1025.2F
NANTUCKET SOUND  1020   45 42                N/A
MASS BAY-STELLWA 1004   46 46  220/ 17/ 21 1022.3F  1 7/8  4/ 5
ISLE OF SHOALS   1000   43     220/ 15/ 17 1023.6F
S OF BLOCK IS    1030      52                N/A           4/ 6
$$

......................KEY.........................
  SKY/WX - SKY CONDITION/PRESENT WEATHER
  TMP    - TEMPERATURE IN FAHRENHEIT
  DWPT   - DEWPOINT IN FAHRENHEIT
  RH     - RELATIVE HUMIDITY IN PERCENT
  WIND   - DIRECTION AND SPEED IN MPH
  PRES   - MEAN SEA LEVEL PRESSURE IN INCHES OF HG
  WCI    - WIND CHILL INDEX
  VSB    - VISIBILITY IN MILES
  HX     - HEAT INDEX
  TC     - TEMPERATURE IN CELSIUS
  VRB    - VARIABLE WIND DIRECTION
  N/A    - NOT AVAILABLE
  
      

Other recent Regional Weather Roundups

Tue Dec 10, 5:00pm

Tue Dec 10, 4:10pm

Tue Dec 10, 4:01pm

Tue Dec 10, 3:10pm

Tue Dec 10, 3:01pm

Tue Dec 10, 2:10pm

Tue Dec 10, 2:01pm

Tue Dec 10, 1:10pm

Tue Dec 10, 1:00pm

Tue Dec 10, 12:10pm

Tue Dec 10, 12:00pm

Tue Dec 10, 11:10am

Tue Dec 10, 11:00am

Tue Dec 10, 10:10am

Tue Dec 10, 10:00am

Tue Dec 10, 9:10am

Tue Dec 10, 9:01am

Tue Dec 10, 8:10am

Tue Dec 10, 8:00am

Tue Dec 10, 7:10am

Tue Dec 10, 7:00am

Tue Dec 10, 6:10am

Tue Dec 10, 6:00am

Tue Dec 10, 5:10am

Tue Dec 10, 5:00am

Tue Dec 10, 4:10am

Tue Dec 10, 4:00am

Tue Dec 10, 3:10am

Tue Dec 10, 3:00am

Tue Dec 10, 2:10am

Tue Dec 10, 2:01am

Tue Dec 10, 1:10am

Tue Dec 10, 1:00am

Tue Dec 10, 12:10am

Tue Dec 10, 12:01am

Mon Dec 9, 11:10pm

Mon Dec 9, 11:01pm

Mon Dec 9, 10:10pm

Mon Dec 9, 10:00pm

Mon Dec 9, 9:10pm

Mon Dec 9, 9:01pm

Mon Dec 9, 8:10pm

Mon Dec 9, 8:01pm

Mon Dec 9, 7:10pm

Mon Dec 9, 7:00pm

Mon Dec 9, 6:10pm

Mon Dec 9, 6:00pm

Mon Dec 9, 5:10pm

Mon Dec 9, 5:01pm

Mon Dec 9, 4:10pm

Mon Dec 9, 4:01pm

Mon Dec 9, 3:10pm

Mon Dec 9, 3:01pm

Mon Dec 9, 2:10pm

Mon Dec 9, 2:00pm

Mon Dec 9, 1:10pm

Mon Dec 9, 1:00pm

Mon Dec 9, 12:10pm

Mon Dec 9, 12:00pm

Mon Dec 9, 11:10am

Mon Dec 9, 11:00am

Mon Dec 9, 10:10am

Mon Dec 9, 10:00am

Mon Dec 9, 9:10am

Mon Dec 9, 9:00am

Mon Dec 9, 8:10am

Mon Dec 9, 8:00am

Mon Dec 9, 7:10am

Mon Dec 9, 7:00am

Mon Dec 9, 6:10am

Mon Dec 9, 5:10am

Mon Dec 9, 5:00am

Mon Dec 9, 4:10am

Mon Dec 9, 4:00am

Mon Dec 9, 3:10am

Mon Dec 9, 3:00am

Mon Dec 9, 2:10am

Mon Dec 9, 2:00am

Mon Dec 9, 1:10am

Mon Dec 9, 1:00am

Mon Dec 9, 12:10am

Mon Dec 9, 12:00am

Sun Dec 8, 11:10pm

Sun Dec 8, 11:00pm

Sun Dec 8, 10:10pm

Sun Dec 8, 10:01pm

Sun Dec 8, 9:10pm

Sun Dec 8, 9:01pm

Sun Dec 8, 8:10pm

Sun Dec 8, 8:00pm

Sun Dec 8, 7:10pm

Sun Dec 8, 7:00pm

Sun Dec 8, 6:10pm

Sun Dec 8, 6:01pm

Sun Dec 8, 5:10pm

Sun Dec 8, 5:00pm

Sun Dec 8, 4:10pm

Sun Dec 8, 4:01pm

Sun Dec 8, 3:10pm

Sun Dec 8, 3:01pm

Sun Dec 8, 2:10pm

Sun Dec 8, 2:01pm

Sun Dec 8, 1:10pm

Sun Dec 8, 1:00pm

Sun Dec 8, 12:10pm

Sun Dec 8, 12:01pm

Sun Dec 8, 11:10am

Sun Dec 8, 11:00am

Sun Dec 8, 10:10am

Sun Dec 8, 10:01am

Sun Dec 8, 9:10am

Sun Dec 8, 9:00am

Sun Dec 8, 8:10am

Sun Dec 8, 8:00am

Sun Dec 8, 7:10am

Sun Dec 8, 7:00am

Sun Dec 8, 6:10am

Sun Dec 8, 6:00am

Sun Dec 8, 5:10am

Sun Dec 8, 5:00am

Sun Dec 8, 4:10am

Sun Dec 8, 4:00am

Sun Dec 8, 3:10am

Sun Dec 8, 3:00am

Sun Dec 8, 2:10am

Sun Dec 8, 2:00am

Sun Dec 8, 1:10am

Sun Dec 8, 1:00am

Sun Dec 8, 12:10am

Sun Dec 8, 12:01am

Sat Dec 7, 11:10pm

Sat Dec 7, 11:00pm

Sat Dec 7, 10:10pm

Sat Dec 7, 10:00pm

Sat Dec 7, 9:10pm

Sat Dec 7, 9:00pm

Sat Dec 7, 8:10pm

Sat Dec 7, 8:00pm

Sat Dec 7, 7:10pm

Sat Dec 7, 7:00pm

Sat Dec 7, 6:10pm

Sat Dec 7, 6:00pm

Sat Dec 7, 5:10pm

Meta data:

ID: 7d1f366a-8d6c-4a68-b098-51342b1e967b
Link: https://api.weather.gov/products/7d1f366a-8d6c-4a68-b098-51342b1e967b